Back to catalog

STARLINK-37014

AliveCommunicationsSSO
NORAD 68216·PAYLOAD·🇺🇸 United States

Launched Mar 17, 2026 from Vandenberg Space Force Base

Loading…

Next Passes (next 24 hours)

TLE

FreshSource: CelesTrak SupGP

Epoch: Sep 14, 2026, 21:35 UTC

1 68216C 26053K   26257.89979167  .00005555  00000+0  17253-3 0  2574
2 68216  97.2846 131.7347 0002053  92.1243 270.7670 15.33421891    15

Track STARLINK-37014 in real time with AllMySat

Download on the App Store